User: anonymous   Login
Location: Unspecified
(0.0000°N, 0.0000°E)
Time: 20:11:19
(UTC+00:00)
Language:

STARLINK-35298 - Orbit

View from above orbital plane
View from above orbital plane
View from above satellite
View from above satellite

Ground track
Ground track

The orbit is defined by the following mean orbital elements,

1 65842U          26145.27406834 +.00000000 +00000-0 +88913-3 0 00002
2 65842  53.1589  92.2732 0001117  94.1164 265.9967 15.34419139    02
Epoch (UTC): 25 May 2026 06:34:39
Eccentricity: 0.0001117
inclination: 53.1589°
perigee height: 462 km
apogee height: 463 km
right ascension of ascending node: 92.2732°
argument of perigee: 94.1164°
revolutions per day: 15.34419139
mean anomaly at epoch: 265.9967°

The dashed part of the orbit path shows where the satellite is in the earth's shadow,  

DLR